"Pseudo-MPEC" for P10LgRM

Created 2019 Jan 17 12:18:38 UT using Find_Orb

Click here for an explanation of pseudo-MPECs

 
 Astrometry: 
     P10LgRM  C2018 12 31XfWG1AstrometrymYK(X+%sq=jTR2)r?f?vBfY.[kNll9_%eg^JFF51
     P10LgRM  C2018 12 31h3hbO.'%Pn88))fuPZ4UE!mo%ke[@5I-W17em;/TD8u?BUSxT.k#F51
     P10LgRM  C2019 01 08eUvC@3b3*$N93rredacted;+.kN=Dq-qtqvCG'2g\bd#PLj4+?M7F51
     P10LgRM  C2019 01 08@:hlh:h1;ow(,`F/6syJ$rQBd=HGXk(x_Kj'eX9N6cZP/C@(vD`oF51
     P10LgRM  C2019 01 08KObIhg:pRLc3Tyvh*+eJhboN1D1D7o$by@2gb]:,F'aclick#O^/F51
     P10LgRM  C2019 01 08Bjfm`DV9BZHOTdVoZyCnet%BSGxDgl^1Hw)jWdlu9F:opX)o5chvF51
     P10LgRM  C2019 01 09jAiAJYxhereh%t[Kh+uF4j5o-5ou2WdactNS;=NfPM.U!jZiuVicF51
     P10LgRM  C2019 01 09]Z_A#vI08f_XpffKg0`0+SIp2[$'ca#r]n,6`MOC;_I\o/lU%$u2F51
     P10LgRM  C2019 01 09Bl`jxPQKIIu.rXX[$3`$k57Pi*for-m9g5+MZ*X1/84X3w*kUeJBF51
     P10LgRM  C2019 01 17^J%R=lAI@!-Rfpj!)#x3I-Ss)XGpsAgXkldb_+1Y-1si!NrX+'3^V06
     P10LgRM  C2019 01 17CThFfP+rbdYZu,IP[A/a'6O?kE6m2[6f]X2$.rvJ\/_2;bv^K^e3V06
     P10LgRM  C2019 01 170D0GwKdo!i+0NqL64t9:9/explanation'x:MJ^7nI^Jd5Ie$Tv,V06

Station data:
(F51) Pan-STARRS 1, Haleakala  (N20.707235 W156.255910)  US/Hawaii.
   Observers N. Primak, A. Schultz, S. Watters, J. Thiel, T. Goggia. Measurer
   PS1 Science Consortium. 1.8-m Ritchey-Chrétien + CCD.
(V06) Catalina Sky Survey-Kuiper  (N32.416847 W110.732550)  US/Arizona.
   Observers B. M. Africano, E. J. Christensen, G. A. Farneth, D. C. Fuls, A.
   R. Gibbs, A. D. Grauer, H. Groeller, J. A. Johnson, R. A. Kowalski, S. M.
   Larson, G. J. Leonard, R. L. Seaman, F. C. Shelly. 1.55-m reflector + CCD.

Orbital elements:  P10LgRM
   Perihelion 2018 May 21.390964 +/- 0.241 TT =  9:22:59 (JD 2458259.890964)
Epoch 2019 Jan 17.0 TT = JDT 2458500.5   Earth MOID: 0.7767   AutoNEOCP
M  92.50858221 +/- 0.06             (J2000 ecliptic)
n   0.38447675 +/- 0.000193         Peri.  265.86374 +/- 0.056
a   1.87307853 +/- 0.000628         Node   105.49457 +/- 0.008
e   0.1099237 +/- 0.000144          Incl.   24.09507 +/- 0.027
P   2.56/936.32d           H 20.8   G  0.15   U  7.0  
q 1.66718280 +/- 0.000512    Q 2.07897427 +/- 0.000843
From 12 observations 2018 Dec. 31-2019 Jan. 17; mean residual 0".13
Residuals in arcseconds: 
181231 F51  .18+  .01-    190108 F51  .02-  .01-    190109 F51  .23-  .01-    
181231 F51  .18-  .02+    190108 F51  .02+  .04-    190117 V06  .13+  .14-    
190108 F51  .01+  .10-    190109 F51  .02+  .07+    190117 V06  .35-  .06+    
190108 F51  .01+  .03+    190109 F51  .20+  .05+    190117 V06  .22+  .08+    

Ephemerides (geocentric):
Date (UTC) HH   RA              Dec         delta   r     elong  mag " sig PA
---- -- -- --  -------------   -----------  ------ ------ -----  --- ---- ---
2019 01 17 12  07 51 31.425   +30 18 34.66  .92793 1.9050 170.4 22.4 .120  48
2019 01 17 13  07 51 27.710   +30 19 28.51  .92802 1.9051 170.4 22.4 .122  48
2019 01 17 14  07 51 23.996   +30 20 22.34  .92811 1.9051 170.4 22.4 .124  47
2019 01 17 15  07 51 20.281   +30 21 16.13  .92821 1.9052 170.4 22.4 .127  46
2019 01 17 16  07 51 16.566   +30 22 09.88  .92830 1.9052 170.3 22.4 .129  46
2019 01 17 17  07 51 12.851   +30 23 03.60  .92839 1.9053 170.3 22.4 .131  45
2019 01 17 18  07 51 09.136   +30 23 57.29  .92849 1.9053 170.3 22.4 .133  45
2019 01 17 19  07 51 05.421   +30 24 50.94  .92859 1.9054 170.2 22.4 .135  44
2019 01 17 20  07 51 01.705   +30 25 44.56  .92868 1.9055 170.2 22.4 .137  44
2019 01 17 21  07 50 57.989   +30 26 38.14  .92878 1.9055 170.2 22.5 .139  43
2019 01 17 22  07 50 54.274   +30 27 31.69  .92888 1.9056 170.1 22.5 .142  43
2019 01 17 23  07 50 50.558   +30 28 25.20  .92897 1.9056 170.1 22.5 .144  42
2019 01 18 00  07 50 46.842   +30 29 18.68  .92907 1.9057 170.1 22.5 .146  42
2019 01 18 01  07 50 43.125   +30 30 12.12  .92917 1.9057 170.1 22.5 .148  41
2019 01 18 02  07 50 39.409   +30 31 05.53  .92927 1.9058 170.0 22.5 .151  41
2019 01 18 03  07 50 35.693   +30 31 58.90  .92937 1.9058 170.0 22.5 .153  40
2019 01 18 04  07 50 31.977   +30 32 52.24  .92947 1.9059 170.0 22.5 .155  40
2019 01 18 05  07 50 28.260   +30 33 45.54  .92957 1.9060 169.9 22.5 .158  39
2019 01 18 06  07 50 24.544   +30 34 38.81  .92967 1.9060 169.9 22.5 .160  39
2019 01 18 07  07 50 20.827   +30 35 32.04  .92977 1.9061 169.9 22.5 .162  39
2019 01 18 08  07 50 17.111   +30 36 25.23  .92987 1.9061 169.8 22.5 .165  38
2019 01 18 09  07 50 13.394   +30 37 18.39  .92998 1.9062 169.8 22.5 .167  38
2019 01 18 10  07 50 09.678   +30 38 11.51  .93008 1.9062 169.8 22.5 .169  37
2019 01 18 11  07 50 05.961   +30 39 04.60  .93018 1.9063 169.7 22.5 .172  37
2019 01 18 12  07 50 02.245   +30 39 57.65  .93029 1.9063 169.7 22.5 .174  36
2019 01 18 13  07 49 58.529   +30 40 50.66  .93039 1.9064 169.7 22.5 .177  36
2019 01 18 14  07 49 54.812   +30 41 43.64  .93050 1.9065 169.6 22.5 .179  36
2019 01 18 15  07 49 51.096   +30 42 36.58  .93060 1.9065 169.6 22.5 .182  35
2019 01 18 16  07 49 47.380   +30 43 29.49  .93071 1.9066 169.6 22.5 .184  35
2019 01 18 17  07 49 43.664   +30 44 22.36  .93081 1.9066 169.5 22.5 .187  34
2019 01 18 18  07 49 39.948   +30 45 15.19  .93092 1.9067 169.5 22.5 .189  34
2019 01 18 19  07 49 36.232   +30 46 07.98  .93103 1.9067 169.5 22.5 .192  34
2019 01 18 20  07 49 32.516   +30 47 00.74  .93114 1.9068 169.4 22.5 .195  33
2019 01 18 21  07 49 28.800   +30 47 53.46  .93124 1.9069 169.4 22.5 .197  33
2019 01 18 22  07 49 25.085   +30 48 46.15  .93135 1.9069 169.3 22.5 .200  33
2019 01 18 23  07 49 21.369   +30 49 38.80  .93146 1.9070 169.3 22.5 .202  32
2019 01 19 00  07 49 17.654   +30 50 31.41  .93157 1.9070 169.3 22.5 .205  32
2019 01 19 01  07 49 13.939   +30 51 23.98  .93168 1.9071 169.2 22.5 .208  32
2019 01 19 02  07 49 10.224   +30 52 16.52  .93179 1.9071 169.2 22.5 .211  31
2019 01 19 03  07 49 06.510   +30 53 09.02  .93191 1.9072 169.2 22.5 .213  31
2019 01 19 04  07 49 02.795   +30 54 01.48  .93202 1.9072 169.1 22.5 .216  31
2019 01 19 05  07 48 59.081   +30 54 53.91  .93213 1.9073 169.1 22.5 .219  30
2019 01 19 06  07 48 55.367   +30 55 46.29  .93224 1.9074 169.1 22.5 .221  30
2019 01 19 07  07 48 51.653   +30 56 38.64  .93236 1.9074 169.0 22.5 .224  29
2019 01 19 08  07 48 47.940   +30 57 30.95  .93247 1.9075 169.0 22.5 .227  29
2019 01 19 09  07 48 44.227   +30 58 23.23  .93258 1.9075 168.9 22.5 .230  29
2019 01 19 10  07 48 40.514   +30 59 15.46  .93270 1.9076 168.9 22.5 .233  29
2019 01 19 11  07 48 36.801   +31 00 07.66  .93281 1.9076 168.9 22.5 .236  28